Time,TemperatureF,DewpointF,PressureIn,WindDirection,WindDirectionDegrees,WindSpeedMPH,WindSpeedGustMPH,Humidity,HourlyPrecipIn,Conditions,Clouds,dailyrainin,SoftwareType,DateUTC
2013-05-02 00:01:00,40.0,26.3,29.78,NNE,23,4.9,5.4,58,0.00,,,0.00,WUHU216HW,2013-05-02 05:01:00,
2013-05-02 00:06:00,40.0,26.3,29.79,North,0,2.5,5.4,58,0.00,,,0.00,WUHU216HW,2013-05-02 05:06:00,
2013-05-02 00:11:00,40.0,26.3,29.79,North,0,2.5,6.0,58,0.00,,,0.00,WUHU216HW,2013-05-02 05:11:00,
2013-05-02 00:16:00,40.0,26.3,29.79,ENE,68,2.9,6.0,58,0.00,,,0.00,WUHU216HW,2013-05-02 05:16:00,
2013-05-02 00:21:00,39.8,26.6,29.78,WNW,293,2.5,6.3,59,0.00,,,0.00,WUHU216HW,2013-05-02 05:21:00,
2013-05-02 00:26:00,39.8,26.6,29.79,NNW,338,3.4,6.3,59,0.00,,,0.00,WUHU216HW,2013-05-02 05:26:00,
2013-05-02 00:31:00,39.6,26.4,29.79,NE,45,2.7,4.0,59,0.00,,,0.00,WUHU216HW,2013-05-02 05:31:00,
2013-05-02 00:36:00,39.6,26.8,29.79,NNE,23,3.6,4.3,60,0.00,,,0.00,WUHU216HW,2013-05-02 05:36:00,
2013-05-02 00:41:00,39.4,26.6,29.78,North,0,6.3,6.3,60,0.00,,,0.00,WUHU216HW,2013-05-02 05:41:00,
2013-05-02 00:46:00,39.4,26.6,29.78,NNW,338,1.8,6.3,60,0.00,,,0.00,WUHU216HW,2013-05-02 05:46:00,
2013-05-02 00:51:00,39.2,26.8,29.78,North,0,3.1,6.7,61,0.00,,,0.00,WUHU216HW,2013-05-02 05:51:00,
2013-05-02 00:56:00,39.2,26.8,29.78,East,90,1.8,6.7,61,0.00,,,0.00,WUHU216HW,2013-05-02 05:56:00,
2013-05-02 01:01:00,39.2,26.8,29.79,NW,315,2.2,7.2,61,0.00,,,0.00,WUHU216HW,2013-05-02 06:01:00,
2013-05-02 01:06:00,39.2,26.8,29.79,NW,315,2.2,7.2,61,0.00,,,0.00,WUHU216HW,2013-05-02 06:06:00,
2013-05-02 01:11:00,39.2,27.2,29.80,NNW,338,3.8,3.8,62,0.00,,,0.00,WUHU216HW,2013-05-02 06:11:00,
2013-05-02 01:16:00,39.1,27.1,29.80,North,0,2.9,5.8,62,0.00,,,0.00,WUHU216HW,2013-05-02 06:16:00,
2013-05-02 01:21:00,39.1,27.1,29.79,North,0,4.9,5.8,62,0.00,,,0.00,WUHU216HW,2013-05-02 06:21:00,
2013-05-02 01:26:00,38.9,27.3,29.80,North,0,1.6,4.9,63,0.00,,,0.00,WUHU216HW,2013-05-02 06:26:00,
2013-05-02 01:31:00,38.9,27.3,29.80,NW,315,2.5,6.3,63,0.00,,,0.00,WUHU216HW,2013-05-02 06:31:00,
2013-05-02 01:36:00,38.9,27.3,29.80,NNE,23,5.8,6.3,63,0.00,,,0.00,WUHU216HW,2013-05-02 06:36:00,
2013-05-02 01:41:00,38.7,27.1,29.80,WNW,293,4.7,6.5,63,0.00,,,0.00,WUHU216HW,2013-05-02 06:41:00,
2013-05-02 01:46:00,38.7,27.1,29.80,NNW,338,5.6,6.5,63,0.00,,,0.00,WUHU216HW,2013-05-02 06:46:00,
2013-05-02 01:51:00,38.5,26.9,29.79,North,0,2.9,6.9,63,0.00,,,0.00,WUHU216HW,2013-05-02 06:51:00,
2013-05-02 01:56:00,38.5,26.9,29.80,NNW,338,7.6,7.6,63,0.00,,,0.00,WUHU216HW,2013-05-02 06:56:00,
2013-05-02 02:01:00,38.5,26.9,29.80,North,0,3.6,7.6,63,0.00,,,0.00,WUHU216HW,2013-05-02 07:01:00,
2013-05-02 02:06:00,38.3,26.8,29.80,NNE,23,4.3,6.3,63,0.00,,,0.00,WUHU216HW,2013-05-02 07:06:00,
2013-05-02 02:11:00,38.3,26.8,29.80,North,0,3.8,5.4,63,0.00,,,0.00,WUHU216HW,2013-05-02 07:11:00,
2013-05-02 02:16:00,38.2,27.0,29.80,North,0,5.6,5.6,64,0.00,,,0.00,WUHU216HW,2013-05-02 07:16:00,
2013-05-02 02:21:00,38.2,27.0,29.80,North,0,1.3,5.6,64,0.00,,,0.00,WUHU216HW,2013-05-02 07:21:00,
2013-05-02 02:26:00,38.2,27.0,29.80,NNW,338,4.0,5.4,64,0.00,,,0.00,WUHU216HW,2013-05-02 07:26:00,
2013-05-02 02:31:00,38.0,26.8,29.80,NNW,338,3.1,5.4,64,0.00,,,0.00,WUHU216HW,2013-05-02 07:31:00,
2013-05-02 02:36:00,38.0,26.8,29.81,North,0,2.9,4.5,64,0.00,,,0.00,WUHU216HW,2013-05-02 07:36:00,
2013-05-02 02:41:00,37.8,26.6,29.81,North,0,2.5,5.4,64,0.00,,,0.00,WUHU216HW,2013-05-02 07:41:00,
2013-05-02 02:46:00,37.8,27.1,29.81,WNW,293,1.8,5.4,65,0.00,,,0.00,WUHU216HW,2013-05-02 07:46:00,
2013-05-02 02:51:00,37.8,27.1,29.81,North,0,6.3,7.2,65,0.00,,,0.00,WUHU216HW,2013-05-02 07:51:00,
2013-05-02 02:56:00,37.8,27.5,29.81,North,0,3.6,7.2,66,0.00,,,0.00,WUHU216HW,2013-05-02 07:56:00,
2013-05-02 03:01:00,37.6,26.9,29.81,WNW,293,0.9,4.7,65,0.00,,,0.00,WUHU216HW,2013-05-02 08:01:00,
2013-05-02 03:06:00,37.6,27.3,29.81,NNW,338,4.9,4.9,66,0.00,,,0.00,WUHU216HW,2013-05-02 08:06:00,
2013-05-02 03:11:00,37.4,27.5,29.81,NW,315,2.5,6.9,67,0.00,,,0.00,WUHU216HW,2013-05-02 08:11:00,
2013-05-02 03:16:00,37.4,27.1,29.81,NNE,23,3.6,6.9,66,0.00,,,0.00,WUHU216HW,2013-05-02 08:16:00,
2013-05-02 03:21:00,37.4,27.1,29.81,NNW,338,1.8,4.7,66,0.00,,,0.00,WUHU216HW,2013-05-02 08:21:00,
2013-05-02 03:26:00,37.4,27.5,29.81,NW,315,2.5,4.7,67,0.00,,,0.00,WUHU216HW,2013-05-02 08:26:00,
2013-05-02 03:31:00,37.3,27.3,29.81,WNW,293,2.7,4.7,67,0.00,,,0.00,WUHU216HW,2013-05-02 08:31:00,
2013-05-02 03:36:00,37.3,27.3,29.81,NNW,338,2.0,3.4,67,0.00,,,0.00,WUHU216HW,2013-05-02 08:36:00,
2013-05-02 03:41:00,37.3,27.3,29.81,WNW,293,1.8,6.5,67,0.00,,,0.00,WUHU216HW,2013-05-02 08:41:00,
2013-05-02 03:46:00,37.1,27.2,29.81,WNW,293,3.6,6.5,67,0.00,,,0.00,WUHU216HW,2013-05-02 08:46:00,
2013-05-02 03:51:00,37.1,27.2,29.81,West,270,2.5,3.6,67,0.00,,,0.00,WUHU216HW,2013-05-02 08:51:00,
2013-05-02 03:56:00,37.1,27.2,29.81,WNW,293,1.8,5.1,67,0.00,,,0.00,WUHU216HW,2013-05-02 08:56:00,
2013-05-02 04:01:00,37.1,27.2,29.81,WNW,293,6.9,6.9,67,0.00,,,0.00,WUHU216HW,2013-05-02 09:01:00,
2013-05-02 04:06:00,36.9,27.0,29.81,WNW,293,3.6,6.9,67,0.00,,,0.00,WUHU216HW,2013-05-02 09:06:00,
2013-05-02 04:11:00,36.7,27.2,29.81,NW,315,5.6,5.6,68,0.00,,,0.00,WUHU216HW,2013-05-02 09:11:00,
2013-05-02 04:16:00,36.5,26.7,29.80,North,0,1.8,5.6,67,0.00,,,0.00,WUHU216HW,2013-05-02 09:16:00,
2013-05-02 04:21:00,36.5,27.0,29.80,NW,315,4.0,6.0,68,0.00,,,0.00,WUHU216HW,2013-05-02 09:21:00,
2013-05-02 04:26:00,36.4,26.8,29.80,NW,315,3.4,6.0,68,0.00,,,0.00,WUHU216HW,2013-05-02 09:26:00,
2013-05-02 04:31:00,36.4,26.8,29.80,NNW,338,3.4,5.1,68,0.00,,,0.00,WUHU216HW,2013-05-02 09:31:00,
2013-05-02 04:36:00,36.2,27.0,29.80,NW,315,2.9,5.1,69,0.00,,,0.00,WUHU216HW,2013-05-02 09:36:00,
2013-05-02 04:41:00,36.2,27.0,29.79,NW,315,1.3,5.1,69,0.00,,,0.00,WUHU216HW,2013-05-02 09:41:00,
2013-05-02 04:46:00,36.0,26.5,29.80,NNW,338,1.6,4.7,68,0.00,,,0.00,WUHU216HW,2013-05-02 09:46:00,
2013-05-02 04:51:00,36.0,26.5,29.80,ESE,113,2.5,6.7,68,0.00,,,0.00,WUHU216HW,2013-05-02 09:51:00,
2013-05-02 04:56:00,36.0,26.5,29.80,WNW,293,4.3,6.7,68,0.00,,,0.00,WUHU216HW,2013-05-02 09:56:00,
2013-05-02 05:01:00,36.0,26.5,29.80,North,0,5.4,5.4,68,0.00,,,0.00,WUHU216HW,2013-05-02 10:01:00,
2013-05-02 05:06:00,35.8,26.3,29.80,WNW,293,4.0,5.4,68,0.00,,,0.00,WUHU216HW,2013-05-02 10:06:00,
2013-05-02 05:11:00,35.8,26.3,29.81,NW,315,2.2,4.9,68,0.00,,,0.00,WUHU216HW,2013-05-02 10:11:00,
2013-05-02 05:16:00,35.6,26.1,29.80,NE,45,4.5,4.9,68,0.00,,,0.00,WUHU216HW,2013-05-02 10:16:00,
2013-05-02 05:21:00,35.6,26.1,29.81,North,0,2.7,6.3,68,0.00,,,0.00,WUHU216HW,2013-05-02 10:21:00,
2013-05-02 05:26:00,35.6,25.7,29.80,NE,45,3.1,6.3,67,0.00,,,0.00,WUHU216HW,2013-05-02 10:26:00,
2013-05-02 05:31:00,35.6,25.7,29.80,West,270,6.3,6.3,67,0.00,,,0.00,WUHU216HW,2013-05-02 10:31:00,
2013-05-02 05:36:00,35.5,25.6,29.80,WNW,293,3.6,6.3,67,0.00,,,0.00,WUHU216HW,2013-05-02 10:36:00,
2013-05-02 05:41:00,35.5,25.6,29.80,NNW,338,1.8,5.4,67,0.00,,,0.00,WUHU216HW,2013-05-02 10:41:00,
2013-05-02 05:46:00,35.5,25.6,29.81,NNW,338,2.0,4.3,67,0.00,,,0.00,WUHU216HW,2013-05-02 10:46:00,
2013-05-02 05:51:00,35.3,25.4,29.80,North,0,1.8,4.0,67,0.00,,,0.00,WUHU216HW,2013-05-02 10:51:00,
2013-05-02 05:56:00,35.3,25.4,29.80,WNW,293,2.2,4.3,67,0.00,,,0.00,WUHU216HW,2013-05-02 10:56:00,
2013-05-02 06:01:00,35.1,25.6,29.80,NW,315,2.0,4.3,68,0.00,,,0.00,WUHU216HW,2013-05-02 11:01:00,
2013-05-02 06:06:00,35.1,25.2,29.80,NNW,338,2.0,6.0,67,0.00,,,0.00,WUHU216HW,2013-05-02 11:06:00,
2013-05-02 06:11:00,35.1,25.6,29.80,NNW,338,3.4,6.0,68,0.00,,,0.00,WUHU216HW,2013-05-02 11:11:00,
2013-05-02 06:16:00,34.9,25.4,29.80,NNW,338,1.1,4.7,68,0.00,,,0.00,WUHU216HW,2013-05-02 11:16:00,
2013-05-02 06:21:00,34.9,25.4,29.80,NNW,338,1.1,4.7,68,0.00,,,0.00,WUHU216HW,2013-05-02 11:21:00,
2013-05-02 06:26:00,34.9,25.4,29.80,NNW,338,1.8,4.0,68,0.00,,,0.00,WUHU216HW,2013-05-02 11:26:00,
2013-05-02 06:31:00,34.9,25.4,29.80,NNW,338,4.7,5.8,68,0.00,,,0.00,WUHU216HW,2013-05-02 11:31:00,
2013-05-02 06:36:00,34.7,25.6,29.80,North,0,3.4,5.8,69,0.00,,,0.00,WUHU216HW,2013-05-02 11:36:00,
2013-05-02 06:41:00,34.6,25.4,29.81,North,0,2.5,4.3,69,0.00,,,0.00,WUHU216HW,2013-05-02 11:41:00,
2013-05-02 06:46:00,34.6,25.0,29.82,NW,315,2.5,4.3,68,0.00,,,0.00,WUHU216HW,2013-05-02 11:46:00,
2013-05-02 06:51:00,34.9,25.4,29.83,NNW,338,2.9,4.5,68,0.00,,,0.00,WUHU216HW,2013-05-02 11:51:00,
2013-05-02 06:56:00,34.7,25.2,29.83,NW,315,3.4,4.5,68,0.00,,,0.00,WUHU216HW,2013-05-02 11:56:00,
2013-05-02 07:01:00,34.7,25.2,29.83,West,270,5.1,6.9,68,0.00,,,0.00,WUHU216HW,2013-05-02 12:01:00,
2013-05-02 07:06:00,34.9,25.4,29.83,West,270,4.9,6.9,68,0.00,,,0.00,WUHU216HW,2013-05-02 12:06:00,
2013-05-02 07:11:00,34.7,25.2,29.83,West,270,1.6,4.9,68,0.00,,,0.00,WUHU216HW,2013-05-02 12:11:00,
2013-05-02 07:16:00,34.7,25.2,29.83,NW,315,2.9,5.1,68,0.00,,,0.00,WUHU216HW,2013-05-02 12:16:00,
2013-05-02 07:21:00,34.9,25.4,29.83,WSW,248,1.6,5.6,68,0.00,,,0.00,WUHU216HW,2013-05-02 12:21:00,
2013-05-02 07:26:00,34.9,25.4,29.83,NNW,338,1.1,5.6,68,0.00,,,0.00,WUHU216HW,2013-05-02 12:26:00,
2013-05-02 07:31:00,34.9,25.4,29.83,WNW,293,3.8,3.8,68,0.00,,,0.00,WUHU216HW,2013-05-02 12:31:00,
2013-05-02 07:36:00,35.1,25.2,29.83,WNW,293,3.4,6.3,67,0.00,,,0.00,WUHU216HW,2013-05-02 12:36:00,
2013-05-02 07:41:00,35.1,25.6,29.83,NNE,23,1.1,6.3,68,0.00,,,0.00,WUHU216HW,2013-05-02 12:41:00,
2013-05-02 07:46:00,35.3,25.7,29.83,WNW,293,3.6,4.0,68,0.00,,,0.00,WUHU216HW,2013-05-02 12:46:00,
2013-05-02 07:51:00,35.1,25.6,29.82,NW,315,3.4,4.7,68,0.00,,,0.00,WUHU216HW,2013-05-02 12:51:00,
2013-05-02 07:56:00,34.9,25.4,29.83,North,0,3.4,4.7,68,0.00,,,0.00,WUHU216HW,2013-05-02 12:56:00,
2013-05-02 08:01:00,34.9,25.7,29.83,North,0,2.7,5.4,69,0.00,,,0.00,WUHU216HW,2013-05-02 13:01:00,
2013-05-02 08:06:00,34.9,25.7,29.83,NNE,23,1.6,5.4,69,0.00,,,0.00,WUHU216HW,2013-05-02 13:06:00,
2013-05-02 08:11:00,35.1,25.9,29.83,NNE,23,2.5,4.7,69,0.00,,,0.00,WUHU216HW,2013-05-02 13:11:00,
2013-05-02 08:16:00,35.5,26.3,29.83,NNW,338,4.7,4.9,69,0.00,,,0.00,WUHU216HW,2013-05-02 13:16:00,
2013-05-02 08:21:00,35.3,25.7,29.83,WNW,293,3.4,4.9,68,0.00,,,0.00,WUHU216HW,2013-05-02 13:21:00,
2013-05-02 08:26:00,35.6,26.1,29.83,North,0,8.7,8.7,68,0.00,,,0.00,WUHU216HW,2013-05-02 13:26:00,
2013-05-02 08:31:00,35.6,26.1,29.83,North,0,5.4,8.7,68,0.00,,,0.00,WUHU216HW,2013-05-02 13:31:00,
2013-05-02 08:36:00,36.0,26.1,29.83,WNW,293,6.3,6.9,67,0.00,,,0.00,WUHU216HW,2013-05-02 13:36:00,
2013-05-02 08:41:00,36.2,26.3,29.83,NNE,23,3.4,6.9,67,0.00,,,0.00,WUHU216HW,2013-05-02 13:41:00,
2013-05-02 08:46:00,36.2,25.9,29.83,NNE,23,4.9,6.9,66,0.00,,,0.00,WUHU216HW,2013-05-02 13:46:00,
2013-05-02 08:51:00,36.0,26.1,29.83,WNW,293,5.4,5.4,67,0.00,,,0.00,WUHU216HW,2013-05-02 13:51:00,
2013-05-02 08:56:00,36.4,26.5,29.83,North,0,6.3,6.3,67,0.00,,,0.00,WUHU216HW,2013-05-02 13:56:00,
2013-05-02 09:01:00,36.4,26.5,29.83,NW,315,4.0,6.3,67,0.00,,,0.00,WUHU216HW,2013-05-02 14:01:00,
2013-05-02 09:06:00,36.7,26.5,29.83,North,0,4.5,4.9,66,0.00,,,0.00,WUHU216HW,2013-05-02 14:06:00,
2013-05-02 09:11:00,37.3,26.9,29.84,WNW,293,4.7,5.4,66,0.00,,,0.00,WUHU216HW,2013-05-02 14:11:00,
2013-05-02 09:16:00,37.8,26.6,29.83,WSW,248,6.5,6.5,64,0.00,,,0.00,WUHU216HW,2013-05-02 14:16:00,
2013-05-02 09:21:00,37.8,26.3,29.84,NNW,338,2.9,6.5,63,0.00,,,0.00,WUHU216HW,2013-05-02 14:21:00,
2013-05-02 09:26:00,37.8,26.3,29.83,WSW,248,4.0,6.0,63,0.00,,,0.00,WUHU216HW,2013-05-02 14:26:00,
2013-05-02 09:31:00,37.4,26.0,29.83,North,0,4.7,6.0,63,0.00,,,0.00,WUHU216HW,2013-05-02 14:31:00,
2013-05-02 09:36:00,37.8,26.3,29.83,NNW,338,5.8,6.0,63,0.00,,,0.00,WUHU216HW,2013-05-02 14:36:00,
2013-05-02 09:41:00,38.0,26.5,29.83,North,0,2.5,6.3,63,0.00,,,0.00,WUHU216HW,2013-05-02 14:41:00,
2013-05-02 09:46:00,38.7,27.1,29.83,NNE,23,5.8,8.3,63,0.00,,,0.00,WUHU216HW,2013-05-02 14:46:00,
2013-05-02 09:51:00,39.2,27.2,29.84,WNW,293,5.1,10.5,62,0.00,,,0.00,WUHU216HW,2013-05-02 14:51:00,
2013-05-02 09:56:00,39.6,27.5,29.83,NW,315,4.0,10.5,62,0.00,,,0.00,WUHU216HW,2013-05-02 14:56:00,
2013-05-02 10:01:00,40.1,27.7,29.83,NNW,338,6.3,6.3,61,0.00,,,0.00,WUHU216HW,2013-05-02 15:01:00,
2013-05-02 10:06:00,40.1,27.4,29.83,NW,315,4.5,7.6,60,0.00,,,0.00,WUHU216HW,2013-05-02 15:06:00,
2013-05-02 10:11:00,40.1,27.4,29.83,West,270,4.5,7.6,60,0.00,,,0.00,WUHU216HW,2013-05-02 15:11:00,
2013-05-02 10:16:00,40.0,26.7,29.83,NNW,338,3.1,6.9,59,0.00,,,0.00,WUHU216HW,2013-05-02 15:16:00,
2013-05-02 10:21:00,39.8,26.6,29.83,WNW,293,4.0,6.7,59,0.00,,,0.00,WUHU216HW,2013-05-02 15:21:00,
2013-05-02 10:26:00,39.6,26.4,29.83,NW,315,5.8,8.3,59,0.00,,,0.00,WUHU216HW,2013-05-02 15:26:00,
2013-05-02 10:31:00,39.4,26.2,29.83,North,0,6.7,8.3,59,0.00,,,0.00,WUHU216HW,2013-05-02 15:31:00,
2013-05-02 10:36:00,38.9,25.3,29.84,NW,315,4.7,8.5,58,0.00,,,0.00,WUHU216HW,2013-05-02 15:36:00,
2013-05-02 10:41:00,38.7,25.6,29.84,NNE,23,2.7,8.7,59,0.00,,,0.00,WUHU216HW,2013-05-02 15:41:00,
2013-05-02 10:46:00,39.2,26.0,29.83,NNE,23,5.1,8.7,59,0.00,,,0.00,WUHU216HW,2013-05-02 15:46:00,
2013-05-02 10:51:00,39.8,26.6,29.83,WNW,293,5.1,5.6,59,0.00,,,0.00,WUHU216HW,2013-05-02 15:51:00,
2013-05-02 10:56:00,40.7,27.0,29.83,WNW,293,5.8,5.8,58,0.00,,,0.00,WUHU216HW,2013-05-02 15:56:00,
2013-05-02 11:01:00,41.0,26.0,29.83,NNE,23,4.7,5.8,55,0.00,,,0.00,WUHU216HW,2013-05-02 16:01:00,
2013-05-02 11:06:00,39.6,25.1,29.83,NNW,338,4.7,8.1,56,0.00,,,0.00,WUHU216HW,2013-05-02 16:06:00,
2013-05-02 11:11:00,39.8,26.1,29.83,West,270,5.4,8.1,58,0.00,,,0.00,WUHU216HW,2013-05-02 16:11:00,
2013-05-02 11:16:00,40.7,26.6,29.83,NW,315,6.3,9.2,57,0.00,,,0.00,WUHU216HW,2013-05-02 16:16:00,
2013-05-02 11:21:00,41.2,26.7,29.83,NNE,23,4.7,9.2,56,0.00,,,0.00,WUHU216HW,2013-05-02 16:21:00,
2013-05-02 11:26:00,40.9,25.8,29.83,North,0,5.4,9.2,55,0.00,,,0.00,WUHU216HW,2013-05-02 16:26:00,
2013-05-02 11:31:00,41.2,26.2,29.82,WSW,248,1.8,8.9,55,0.00,,,0.00,WUHU216HW,2013-05-02 16:31:00,
2013-05-02 11:36:00,41.6,26.6,29.82,WNW,293,7.2,7.6,55,0.00,,,0.00,WUHU216HW,2013-05-02 16:36:00,
2013-05-02 11:41:00,41.6,26.1,29.83,WNW,293,9.2,9.2,54,0.00,,,0.00,WUHU216HW,2013-05-02 16:41:00,
2013-05-02 11:46:00,41.9,26.0,29.82,NNW,338,4.5,9.2,53,0.00,,,0.00,WUHU216HW,2013-05-02 16:46:00,
2013-05-02 11:51:00,41.0,25.1,29.82,North,0,3.4,8.5,53,0.00,,,0.00,WUHU216HW,2013-05-02 16:51:00,
2013-05-02 11:56:00,41.0,25.6,29.82,North,0,5.6,6.3,54,0.00,,,0.00,WUHU216HW,2013-05-02 16:56:00,
2013-05-02 12:01:00,41.4,25.9,29.81,North,0,9.4,9.4,54,0.00,,,0.00,WUHU216HW,2013-05-02 17:01:00,
2013-05-02 12:06:00,40.7,25.2,29.81,NNE,23,3.4,11.6,54,0.00,,,0.00,WUHU216HW,2013-05-02 17:06:00,
2013-05-02 12:11:00,41.4,26.8,29.81,WNW,293,7.6,11.6,56,0.00,,,0.00,WUHU216HW,2013-05-02 17:11:00,
2013-05-02 12:16:00,42.3,27.2,29.81,NNE,23,4.0,9.2,55,0.00,,,0.00,WUHU216HW,2013-05-02 17:16:00,
2013-05-02 12:21:00,42.1,26.2,29.81,WNW,293,3.4,9.2,53,0.00,,,0.00,WUHU216HW,2013-05-02 17:21:00,
2013-05-02 12:26:00,42.7,26.6,29.81,North,0,2.7,11.4,53,0.00,,,0.00,WUHU216HW,2013-05-02 17:26:00,
2013-05-02 12:31:00,42.7,26.6,29.81,WNW,293,5.4,11.4,53,0.00,,,0.00,WUHU216HW,2013-05-02 17:31:00,
2013-05-02 12:36:00,42.8,26.8,29.81,WNW,293,9.2,10.5,53,0.00,,,0.00,WUHU216HW,2013-05-02 17:36:00,
2013-05-02 12:41:00,42.7,26.6,29.81,NW,315,6.3,10.5,53,0.00,,,0.00,WUHU216HW,2013-05-02 17:41:00,
2013-05-02 12:46:00,42.7,26.6,29.81,WNW,293,5.8,10.5,53,0.00,,,0.00,WUHU216HW,2013-05-02 17:46:00,
2013-05-02 12:51:00,43.0,26.6,29.80,North,0,4.3,10.5,52,0.00,,,0.00,WUHU216HW,2013-05-02 17:51:00,
2013-05-02 12:56:00,42.1,25.3,29.80,NNE,23,2.5,6.3,51,0.00,,,0.00,WUHU216HW,2013-05-02 17:56:00,
2013-05-02 13:01:00,42.1,26.7,29.80,West,270,8.3,10.5,54,0.00,,,0.00,WUHU216HW,2013-05-02 18:01:00,
2013-05-02 13:06:00,42.8,26.8,29.80,North,0,7.8,10.5,53,0.00,,,0.00,WUHU216HW,2013-05-02 18:06:00,
2013-05-02 13:11:00,43.0,27.9,29.79,NNW,338,3.4,8.3,55,0.00,,,0.00,WUHU216HW,2013-05-02 18:11:00,
2013-05-02 13:16:00,43.7,27.7,29.79,North,0,3.4,7.2,53,0.00,,,0.00,WUHU216HW,2013-05-02 18:16:00,
2013-05-02 13:21:00,44.1,27.5,29.79,WNW,293,5.1,14.5,52,0.00,,,0.00,WUHU216HW,2013-05-02 18:21:00,
2013-05-02 13:26:00,43.7,26.8,29.79,NNW,338,6.3,14.5,51,0.00,,,0.00,WUHU216HW,2013-05-02 18:26:00,
2013-05-02 13:31:00,42.8,26.5,29.79,North,0,2.7,7.8,52,0.00,,,0.00,WUHU216HW,2013-05-02 18:31:00,
2013-05-02 13:36:00,43.2,27.2,29.79,North,0,6.9,7.8,53,0.00,,,0.00,WUHU216HW,2013-05-02 18:36:00,
2013-05-02 13:41:00,43.0,26.6,29.79,NNE,23,3.1,7.8,52,0.00,,,0.00,WUHU216HW,2013-05-02 18:41:00,
2013-05-02 13:46:00,43.4,26.9,29.80,NW,315,4.3,6.9,52,0.00,,,0.00,WUHU216HW,2013-05-02 18:46:00,
2013-05-02 13:51:00,43.9,27.5,29.79,WNW,293,8.1,8.1,52,0.00,,,0.00,WUHU216HW,2013-05-02 18:51:00,
2013-05-02 13:56:00,43.6,26.2,29.79,NNW,338,2.5,8.1,50,0.00,,,0.00,WUHU216HW,2013-05-02 18:56:00,
2013-05-02 14:01:00,43.6,26.6,29.79,North,0,5.4,8.1,51,0.00,,,0.00,WUHU216HW,2013-05-02 19:01:00,
2013-05-02 14:06:00,43.9,27.0,29.78,NNW,338,4.3,7.6,51,0.00,,,0.00,WUHU216HW,2013-05-02 19:06:00,
2013-05-02 14:11:00,44.6,26.6,29.78,North,0,4.9,10.7,49,0.00,,,0.00,WUHU216HW,2013-05-02 19:11:00,
2013-05-02 14:16:00,44.3,25.7,29.78,NNE,23,4.3,10.7,48,0.00,,,0.00,WUHU216HW,2013-05-02 19:16:00,
2013-05-02 14:21:00,44.3,27.3,29.78,NNW,338,3.6,9.2,51,0.00,,,0.00,WUHU216HW,2013-05-02 19:21:00,
2013-05-02 14:26:00,45.0,27.6,29.78,NNW,338,4.3,7.4,50,0.00,,,0.00,WUHU216HW,2013-05-02 19:26:00,
2013-05-02 14:31:00,45.0,27.6,29.78,WNW,293,6.5,8.9,50,0.00,,,0.00,WUHU216HW,2013-05-02 19:31:00,
2013-05-02 14:36:00,45.5,27.5,29.78,WNW,293,6.7,8.9,49,0.00,,,0.00,WUHU216HW,2013-05-02 19:36:00,
2013-05-02 14:41:00,45.7,27.6,29.77,NNW,338,5.4,9.8,49,0.00,,,0.00,WUHU216HW,2013-05-02 19:41:00,
2013-05-02 14:46:00,45.5,26.9,29.78,NNW,338,3.4,9.8,48,0.00,,,0.00,WUHU216HW,2013-05-02 19:46:00,
2013-05-02 14:51:00,44.5,25.9,29.78,WNW,293,3.8,8.7,48,0.00,,,0.00,WUHU216HW,2013-05-02 19:51:00,
2013-05-02 14:56:00,44.5,26.5,29.78,ENE,68,5.4,8.3,49,0.00,,,0.00,WUHU216HW,2013-05-02 19:56:00,
2013-05-02 15:01:00,44.5,26.5,29.77,North,0,5.1,8.9,49,0.00,,,0.00,WUHU216HW,2013-05-02 20:01:00,
2013-05-02 15:06:00,44.8,26.8,29.77,NNW,338,6.3,8.9,49,0.00,,,0.00,WUHU216HW,2013-05-02 20:06:00,
2013-05-02 15:11:00,45.0,26.5,29.78,NW,315,4.0,8.1,48,0.00,,,0.00,WUHU216HW,2013-05-02 20:11:00,
2013-05-02 15:16:00,45.0,26.5,29.77,NNE,23,4.9,9.2,48,0.00,,,0.00,WUHU216HW,2013-05-02 20:16:00,
2013-05-02 15:21:00,44.8,26.3,29.77,West,270,5.1,9.2,48,0.00,,,0.00,WUHU216HW,2013-05-02 20:21:00,
2013-05-02 15:26:00,44.8,25.8,29.77,WSW,248,5.1,8.5,47,0.00,,,0.00,WUHU216HW,2013-05-02 20:26:00,
2013-05-02 15:31:00,44.6,26.1,29.77,North,0,5.8,8.5,48,0.00,,,0.00,WUHU216HW,2013-05-02 20:31:00,
2013-05-02 15:36:00,44.8,26.3,29.77,WSW,248,9.2,9.2,48,0.00,,,0.00,WUHU216HW,2013-05-02 20:36:00,
2013-05-02 15:41:00,45.5,26.9,29.77,NE,45,4.0,9.2,48,0.00,,,0.00,WUHU216HW,2013-05-02 20:41:00,
2013-05-02 15:46:00,45.4,26.2,29.77,NNE,23,5.8,7.6,47,0.00,,,0.00,WUHU216HW,2013-05-02 20:46:00,
2013-05-02 15:51:00,45.0,26.5,29.77,North,0,6.0,6.7,48,0.00,,,0.00,WUHU216HW,2013-05-02 20:51:00,
2013-05-02 15:56:00,45.0,26.5,29.77,ENE,68,3.4,6.0,48,0.00,,,0.00,WUHU216HW,2013-05-02 20:56:00,
2013-05-02 16:01:00,45.0,26.5,29.77,North,0,6.5,6.5,48,0.00,,,0.00,WUHU216HW,2013-05-02 21:01:00,
2013-05-02 16:06:00,45.4,26.7,29.76,WNW,293,4.0,13.4,48,0.00,,,0.00,WUHU216HW,2013-05-02 21:06:00,
2013-05-02 16:11:00,45.5,26.9,29.76,WNW,293,8.7,13.4,48,0.00,,,0.00,WUHU216HW,2013-05-02 21:11:00,
2013-05-02 16:16:00,45.4,26.7,29.76,NW,315,4.3,8.7,48,0.00,,,0.00,WUHU216HW,2013-05-02 21:16:00,
2013-05-02 16:21:00,45.0,25.9,29.76,SW,225,3.4,8.7,47,0.00,,,0.00,WUHU216HW,2013-05-02 21:21:00,
2013-05-02 16:26:00,44.3,26.3,29.76,WNW,293,3.6,7.8,49,0.00,,,0.00,WUHU216HW,2013-05-02 21:26:00,
2013-05-02 16:31:00,43.9,25.5,29.76,North,0,2.9,7.8,48,0.00,,,0.00,WUHU216HW,2013-05-02 21:31:00,
2013-05-02 16:36:00,44.6,27.2,29.76,WNW,293,5.4,6.7,50,0.00,,,0.00,WUHU216HW,2013-05-02 21:36:00,
2013-05-02 16:41:00,45.0,26.5,29.76,North,0,6.3,6.9,48,0.00,,,0.00,WUHU216HW,2013-05-02 21:41:00,
2013-05-02 16:46:00,44.5,26.5,29.75,WSW,248,5.4,6.9,49,0.00,,,0.00,WUHU216HW,2013-05-02 21:46:00,
2013-05-02 16:51:00,44.8,26.8,29.75,West,270,5.4,9.8,49,0.00,,,0.00,WUHU216HW,2013-05-02 21:51:00,
2013-05-02 16:56:00,45.0,27.0,29.75,North,0,2.5,9.8,49,0.00,,,0.00,WUHU216HW,2013-05-02 21:56:00,
2013-05-02 17:00:00,45.4,26.7,29.76,NNE,23,4.9,6.3,48,0.00,,,0.00,WUHU216HW,2013-05-02 22:00:00,
2013-05-02 17:06:00,44.6,26.1,29.75,West,270,4.5,5.4,48,0.00,,,0.00,WUHU216HW,2013-05-02 22:06:00,
2013-05-02 17:10:00,44.3,26.3,29.75,West,270,0.9,5.8,49,0.00,,,0.00,WUHU216HW,2013-05-02 22:10:00,
2013-05-02 17:16:00,44.6,26.1,29.75,NNW,338,2.9,7.4,48,0.00,,,0.00,WUHU216HW,2013-05-02 22:16:00,
2013-05-02 17:21:00,44.5,25.9,29.75,West,270,4.7,7.8,48,0.00,,,0.00,WUHU216HW,2013-05-02 22:21:00,
2013-05-02 17:26:00,44.3,25.7,29.75,North,0,3.1,7.8,48,0.00,,,0.00,WUHU216HW,2013-05-02 22:26:00,
2013-05-02 17:31:00,44.1,26.2,29.75,NNW,338,3.4,7.8,49,0.00,,,0.00,WUHU216HW,2013-05-02 22:31:00,
2013-05-02 17:35:00,43.9,26.0,29.75,WNW,293,4.3,7.8,49,0.00,,,0.00,WUHU216HW,2013-05-02 22:35:00,
2013-05-02 17:40:00,44.1,26.2,29.75,WNW,293,4.9,6.9,49,0.00,,,0.00,WUHU216HW,2013-05-02 22:40:00,
2013-05-02 17:45:00,43.7,25.8,29.75,West,270,0.9,6.9,49,0.00,,,0.00,WUHU216HW,2013-05-02 22:45:00,
2013-05-02 17:50:00,43.6,25.7,29.75,North,0,4.0,6.9,49,0.00,,,0.00,WUHU216HW,2013-05-02 22:50:00,
2013-05-02 17:55:00,43.4,25.5,29.75,West,270,4.0,7.6,49,0.00,,,0.00,WUHU216HW,2013-05-02 22:55:00,
2013-05-02 18:00:00,43.7,26.4,29.74,NNE,23,1.8,11.0,50,0.00,,,0.00,WUHU216HW,2013-05-02 23:00:00,
2013-05-02 18:05:00,43.7,25.8,29.75,North,0,5.6,11.0,49,0.00,,,0.00,WUHU216HW,2013-05-02 23:05:00,
2013-05-02 18:10:00,43.6,26.2,29.75,NW,315,4.0,7.4,50,0.00,,,0.00,WUHU216HW,2013-05-02 23:10:00,
2013-05-02 18:15:00,43.6,26.2,29.75,North,0,6.0,6.0,50,0.00,,,0.00,WUHU216HW,2013-05-02 23:15:00,
2013-05-02 18:20:00,43.6,25.7,29.74,NNE,23,5.6,6.3,49,0.00,,,0.00,WUHU216HW,2013-05-02 23:20:00,
2013-05-02 18:25:00,43.2,25.4,29.75,NNE,23,6.0,6.3,49,0.00,,,0.00,WUHU216HW,2013-05-02 23:25:00,
2013-05-02 18:30:00,43.0,25.8,29.74,West,270,2.5,6.3,50,0.00,,,0.00,WUHU216HW,2013-05-02 23:30:00,
2013-05-02 18:35:00,42.8,25.6,29.74,WNW,293,3.6,6.5,50,0.00,,,0.00,WUHU216HW,2013-05-02 23:35:00,
2013-05-02 18:40:00,42.7,25.4,29.74,WNW,293,2.5,6.5,50,0.00,,,0.00,WUHU216HW,2013-05-02 23:40:00,
2013-05-02 18:45:00,42.8,26.0,29.74,NW,315,5.8,5.8,51,0.00,,,0.00,WUHU216HW,2013-05-02 23:45:00,
2013-05-02 18:50:00,42.8,26.0,29.75,NNW,338,3.4,6.3,51,0.00,,,0.00,WUHU216HW,2013-05-02 23:50:00,
2013-05-02 18:55:00,42.8,26.0,29.75,NNW,338,4.5,6.3,51,0.00,,,0.00,WUHU216HW,2013-05-02 23:55:00,
2013-05-02 19:00:00,42.8,26.0,29.75,North,0,4.0,6.3,51,0.00,,,0.00,WUHU216HW,2013-05-03 00:00:00,
2013-05-02 19:05:00,42.7,25.8,29.75,WNW,293,9.4,9.4,51,0.00,,,0.00,WUHU216HW,2013-05-03 00:05:00,
2013-05-02 19:10:00,42.7,25.8,29.75,West,270,5.1,9.4,51,0.00,,,0.00,WUHU216HW,2013-05-03 00:10:00,
2013-05-02 19:15:00,42.5,25.7,29.75,WNW,293,4.7,5.4,51,0.00,,,0.00,WUHU216HW,2013-05-03 00:15:00,
2013-05-02 19:20:00,42.1,25.3,29.75,WNW,293,2.9,5.8,51,0.00,,,0.00,WUHU216HW,2013-05-03 00:20:00,
2013-05-02 19:25:00,41.8,24.9,29.75,WNW,293,5.8,5.8,51,0.00,,,0.00,WUHU216HW,2013-05-03 00:25:00,
2013-05-02 19:30:00,41.6,25.2,29.74,WSW,248,6.3,6.3,52,0.00,,,0.00,WUHU216HW,2013-05-03 00:30:00,
2013-05-02 19:35:00,41.9,25.6,29.75,NW,315,2.7,6.7,52,0.00,,,0.00,WUHU216HW,2013-05-03 00:35:00,
2013-05-02 19:40:00,41.9,25.6,29.75,West,270,4.0,7.2,52,0.00,,,0.00,WUHU216HW,2013-05-03 00:40:00,
2013-05-02 19:45:00,41.8,25.4,29.75,SW,225,2.9,7.6,52,0.00,,,0.00,WUHU216HW,2013-05-03 00:45:00,
2013-05-02 19:50:00,41.8,25.4,29.74,West,270,5.8,7.6,52,0.00,,,0.00,WUHU216HW,2013-05-03 00:50:00,
2013-05-02 19:55:00,41.6,25.2,29.75,NNW,338,4.9,7.2,52,0.00,,,0.00,WUHU216HW,2013-05-03 00:55:00,
2013-05-02 20:00:00,41.4,25.0,29.75,NNE,23,2.9,7.2,52,0.00,,,0.00,WUHU216HW,2013-05-03 01:00:00,
2013-05-02 20:07:00,41.2,24.9,29.75,NNE,23,3.4,5.4,52,0.00,,,0.00,WUHU216HW,2013-05-03 01:07:00,
2013-05-02 20:12:00,40.7,24.8,29.75,WNW,293,3.1,6.3,53,0.00,,,0.00,WUHU216HW,2013-05-03 01:12:00,
2013-05-02 20:17:00,40.3,24.5,29.74,WNW,293,2.9,6.3,53,0.00,,,0.00,WUHU216HW,2013-05-03 01:17:00,
2013-05-02 20:22:00,40.0,24.6,29.74,North,0,4.3,6.7,54,0.00,,,0.00,WUHU216HW,2013-05-03 01:22:00,
2013-05-02 20:27:00,39.8,24.4,29.74,WNW,293,2.5,6.7,54,0.00,,,0.00,WUHU216HW,2013-05-03 01:27:00,
2013-05-02 20:32:00,39.4,24.0,29.74,NNW,338,3.6,4.7,54,0.00,,,0.00,WUHU216HW,2013-05-03 01:32:00,
2013-05-02 20:37:00,39.2,24.3,29.74,NNW,338,1.6,4.7,55,0.00,,,0.00,WUHU216HW,2013-05-03 01:37:00,
2013-05-02 20:42:00,39.1,24.6,29.74,NNW,338,3.4,5.1,56,0.00,,,0.00,WUHU216HW,2013-05-03 01:42:00,
2013-05-02 20:47:00,38.9,24.4,29.75,North,0,3.1,5.1,56,0.00,,,0.00,WUHU216HW,2013-05-03 01:47:00,
2013-05-02 20:52:00,38.7,24.2,29.75,WNW,293,4.0,4.0,56,0.00,,,0.00,WUHU216HW,2013-05-03 01:52:00,
2013-05-02 20:57:00,38.5,24.5,29.75,NNW,338,4.7,4.9,57,0.00,,,0.00,WUHU216HW,2013-05-03 01:57:00,
2013-05-02 21:01:00,38.5,24.5,29.75,North,0,2.2,6.0,57,0.00,,,0.00,WUHU216HW,2013-05-03 02:01:00,
2013-05-02 21:06:00,38.5,24.5,29.75,NE,45,2.5,6.0,57,0.00,,,0.00,WUHU216HW,2013-05-03 02:06:00,
2013-05-02 21:11:00,38.3,24.4,29.75,North,0,1.1,3.4,57,0.00,,,0.00,WUHU216HW,2013-05-03 02:11:00,
2013-05-02 21:16:00,38.2,24.2,29.75,NNW,338,0.7,5.1,57,0.00,,,0.00,WUHU216HW,2013-05-03 02:16:00,
2013-05-02 21:21:00,38.2,24.2,29.75,WNW,293,1.3,5.1,57,0.00,,,0.00,WUHU216HW,2013-05-03 02:21:00,
2013-05-02 21:26:00,38.0,24.5,29.75,WNW,293,3.8,3.8,58,0.00,,,0.00,WUHU216HW,2013-05-03 02:26:00,
2013-05-02 21:31:00,38.0,24.9,29.75,WNW,293,0.9,4.3,59,0.00,,,0.00,WUHU216HW,2013-05-03 02:31:00,
2013-05-02 21:36:00,37.8,24.3,29.75,WNW,293,2.7,5.1,58,0.00,,,0.00,WUHU216HW,2013-05-03 02:36:00,
2013-05-02 21:41:00,37.8,24.3,29.75,NNW,338,0.9,5.1,58,0.00,,,0.00,WUHU216HW,2013-05-03 02:41:00,
2013-05-02 21:46:00,37.8,24.3,29.75,NNW,338,2.5,3.4,58,0.00,,,0.00,WUHU216HW,2013-05-03 02:46:00,
2013-05-02 21:51:00,37.8,24.3,29.75,WSW,248,0.9,3.4,58,0.00,,,0.00,WUHU216HW,2013-05-03 02:51:00,
2013-05-02 21:56:00,37.6,24.6,29.75,North,0,3.6,3.8,59,0.00,,,0.00,WUHU216HW,2013-05-03 02:56:00,
2013-05-02 22:01:00,37.4,24.4,29.75,NNW,338,1.6,4.9,59,0.00,,,0.00,WUHU216HW,2013-05-03 03:01:00,
2013-05-02 22:06:00,37.4,24.4,29.75,NNW,338,4.0,4.9,59,0.00,,,0.00,WUHU216HW,2013-05-03 03:06:00,
2013-05-02 22:11:00,37.3,24.2,29.75,WNW,293,2.9,4.0,59,0.00,,,0.00,WUHU216HW,2013-05-03 03:11:00,
2013-05-02 22:16:00,37.3,24.7,29.75,North,0,1.8,2.9,60,0.00,,,0.00,WUHU216HW,2013-05-03 03:16:00,
2013-05-02 22:21:00,37.1,24.5,29.75,WNW,293,2.5,5.1,60,0.00,,,0.00,WUHU216HW,2013-05-03 03:21:00,
2013-05-02 22:26:00,37.1,24.5,29.75,NNW,338,4.3,6.0,60,0.00,,,0.00,WUHU216HW,2013-05-03 03:26:00,
2013-05-02 22:31:00,37.1,24.5,29.74,West,270,2.5,6.9,60,0.00,,,0.00,WUHU216HW,2013-05-03 03:31:00,
2013-05-02 22:36:00,37.1,24.5,29.74,North,0,3.8,6.9,60,0.00,,,0.00,WUHU216HW,2013-05-03 03:36:00,
2013-05-02 22:41:00,36.9,24.4,29.74,North,0,3.4,4.0,60,0.00,,,0.00,WUHU216HW,2013-05-03 03:41:00,
2013-05-02 22:46:00,36.7,24.2,29.75,North,0,1.8,5.4,60,0.00,,,0.00,WUHU216HW,2013-05-03 03:46:00,
2013-05-02 22:51:00,36.7,24.2,29.75,WNW,293,5.6,5.6,60,0.00,,,0.00,WUHU216HW,2013-05-03 03:51:00,
2013-05-02 22:56:00,36.7,24.2,29.74,NW,315,2.5,5.6,60,0.00,,,0.00,WUHU216HW,2013-05-03 03:56:00,
2013-05-02 23:01:00,36.5,24.0,29.74,WNW,293,4.9,5.8,60,0.00,,,0.00,WUHU216HW,2013-05-03 04:01:00,
2013-05-02 23:06:00,36.5,24.0,29.74,SSW,203,2.5,6.0,60,0.00,,,0.00,WUHU216HW,2013-05-03 04:06:00,
2013-05-02 23:11:00,36.4,23.9,29.74,North,0,1.6,6.0,60,0.00,,,0.00,WUHU216HW,2013-05-03 04:11:00,
2013-05-02 23:16:00,36.4,24.2,29.74,North,0,2.0,4.7,61,0.00,,,0.00,WUHU216HW,2013-05-03 04:16:00,
2013-05-02 23:21:00,36.4,24.2,29.73,NNW,338,2.0,4.7,61,0.00,,,0.00,WUHU216HW,2013-05-03 04:21:00,
2013-05-02 23:26:00,36.4,24.2,29.73,NNW,338,5.8,5.8,61,0.00,,,0.00,WUHU216HW,2013-05-03 04:26:00,
2013-05-02 23:31:00,36.2,24.0,29.73,NNE,23,4.7,5.8,61,0.00,,,0.00,WUHU216HW,2013-05-03 04:31:00,
2013-05-02 23:36:00,36.0,24.0,29.73,North,0,4.9,5.4,61,0.00,,,0.00,WUHU216HW,2013-05-03 04:36:00,
2013-05-02 23:41:00,35.8,24.1,29.72,NNE,23,2.5,5.4,62,0.00,,,0.00,WUHU216HW,2013-05-03 04:41:00,
2013-05-02 23:46:00,35.6,23.9,29.72,North,0,1.1,5.4,62,0.00,,,0.00,WUHU216HW,2013-05-03 04:46:00,
2013-05-02 23:51:00,35.6,23.9,29.72,NW,315,2.5,3.6,62,0.00,,,0.00,WUHU216HW,2013-05-03 04:51:00,
2013-05-02 23:56:00,35.5,23.8,29.72,WNW,293,1.8,4.7,62,0.00,,,0.00,WUHU216HW,2013-05-03 04:56:00,